CW9790 Weather Reports


Display with metric or nautical units.
time (UTC)temp
F
wind
direction
speed
MPH
gust
MPH
rain 1hr
in
rain 24hr
in
rain mn
in
humidity
%
barometer
mb
20260903205017 102 135 2.0 6.0 0.00 0.00 0.00 32 1009.7
20260903204018 102 225 2.0 8.0 0.00 0.00 0.00 34 1009.8
20260903203017 102 180 2.0 7.0 0.00 0.00 0.00 31 1010.0
20260903202037 102 45 2.0 6.0 0.00 0.00 0.00 32 1010.1
20260903201036 103 135 2.0 10.0 0.00 0.00 0.00 33 1010.2
20260903200017 102 135 2.0 5.0 0.00 0.00 0.00 33 1010.3
20260903195017 102 113 2.0 6.0 0.00 0.00 0.00 36 1010.7
20260903194016 101 135 2.0 7.0 0.00 0.00 0.00 35 1010.8
20260903193016 101 158 3.0 8.0 0.00 0.00 0.00 36 1010.9
20260903192056 101 135 3.0 8.0 0.00 0.00 0.00 36 1011.0
20260903191016 101 135 3.0 8.0 0.00 0.00 0.00 37 1011.2
20260903190016 100 135 3.0 12.0 0.00 0.00 0.00 38 1011.4
20260903185036 100 158 3.0 11.0 0.00 0.00 0.00 39 1011.6
20260903184017 99 135 3.0 10.0 0.00 0.00 0.00 37 1011.6
20260903183017 98 135 3.0 7.0 0.00 0.00 0.00 39 1011.8
20260903182037 98 135 3.0 9.0 0.00 0.00 0.00 40 1012.0
20260903181016 98 158 3.0 6.0 0.00 0.00 0.00 40 1012.1
20260903180016 97 135 3.0 7.0 0.00 0.00 0.00 39 1012.3
20260903175016 97 135 3.0 7.0 0.00 0.00 0.00 42 1012.5
20260903174017 96 135 3.0 10.0 0.00 0.00 0.00 45 1012.6
20260903173016 96 203 3.0 8.0 0.00 0.00 0.00 45 1012.7
20260903172016 96 135 2.0 5.0 0.00 0.00 0.00 46 1012.8
20260903171016 95 135 3.0 10.0 0.00 0.00 0.00 47 1012.9
20260903170016 94 158 2.0 6.0 0.00 0.00 0.00 49 1012.7
20260903165016 93 135 3.0 9.0 0.00 0.00 0.00 50 1012.7
20260903164016 92 180 4.0 11.0 0.00 0.00 0.00 51 1012.7
20260903163036 91 180 3.0 9.0 0.00 0.00 0.00 55 1012.7
20260903162018 91 180 3.0 7.0 0.00 0.00 0.00 55 1012.7
20260903161017 90 180 3.0 8.0 0.00 0.00 0.00 58 1012.6
20260903160017 89 135 3.0 8.0 0.00 0.00 0.00 61 1012.7
20260903155018 88 180 3.0 7.0 0.00 0.00 0.00 64 1012.6
20260903154017 87 158 3.0 8.0 0.00 0.00 0.00 67 1012.6
20260903153018 86 158 3.0 9.0 0.00 0.00 0.00 69 1012.5
20260903152016 84 135 3.0 7.0 0.00 0.00 0.00 71 1012.3
20260903151018 83 135 2.0 6.0 0.00 0.00 0.00 74 1012.2
20260903150018 82 135 3.0 9.0 0.00 0.00 0.00 77 1012.4
20260903145018 81 225 3.0 10.0 0.00 0.00 0.00 79 1012.3
20260903144037 80 158 2.0 9.0 0.00 0.00 0.00 81 1012.2
20260903143018 80 158 2.0 5.0 0.00 0.00 0.00 83 1012.4
20260903142017 79 180 3.0 7.0 0.00 0.00 0.00 85 1012.5
20260903141017 78 158 3.0 7.0 0.00 0.00 0.00 86 1012.4
20260903140017 78 135 3.0 9.0 0.00 0.00 0.00 87 1012.5
20260903135018 78 158 2.0 9.0 0.00 0.00 0.00 89 1012.6
20260903134017 77 113 2.0 6.0 0.00 0.00 0.00 89 1012.5
20260903133017 77 135 2.0 5.0 0.00 0.00 0.00 90 1012.6
20260903132038 76 135 2.0 6.0 0.00 0.00 0.00 91 1012.7
20260903131017 76 135 1.0 5.0 0.00 0.00 0.00 90 1012.6
20260903130017 76 158 2.0 11.0 0.00 0.00 0.00 90 1012.7
20260903125018 76 158 1.0 5.0 0.00 0.00 0.00 90 1012.6
20260903124017 76 158 2.0 4.0 0.00 0.00 0.00 90 1012.6
20260903123017 76 135 2.0 5.0 0.00 0.00 0.00 90 1012.6
20260903122018 76 158 1.0 5.0 0.00 0.00 0.00 90 1012.5
20260903121017 76 135 2.0 6.0 0.00 0.00 0.00 90 1012.5
20260903120017 76 158 2.0 7.0 0.00 0.00 0.00 90 1012.5
20260903115017 76 180 1.0 5.0 0.00 0.00 0.00 90 1012.4
20260903114038 76 135 1.0 5.0 0.00 0.00 0.00 90 1012.5
20260903113017 76 135 1.0 4.0 0.00 0.00 0.00 89 1012.6
20260903112018 76 135 2.0 6.0 0.00 0.00 0.00 89 1012.6
20260903111018 76 180 1.0 4.0 0.00 0.00 0.00 89 1012.6
20260903110018 76 135 1.0 3.0 0.00 0.00 0.00 88 1012.6
20260903105038 76 135 1.0 5.0 0.00 0.00 0.00 88 1012.6
20260903104017 76 135 2.0 5.0 0.00 0.00 0.00 87 1012.5
20260903103017 76 135 2.0 5.0 0.00 0.00 0.00 87 1012.6
20260903102117 76 158 1.0 6.0 0.00 0.00 0.00 86 1012.6
20260903101017 77 135 1.0 4.0 0.00 0.00 0.00 86 1012.5
20260903100018 77 135 2.0 7.0 0.00 0.00 0.00 85 1012.5
20260903095017 77 135 2.0 7.0 0.00 0.00 0.00 85 1012.6
20260903094017 77 135 2.0 6.0 0.00 0.00 0.00 84 1012.7
20260903093017 77 158 1.0 5.0 0.00 0.00 0.00 83 1012.8
20260903092017 77 135 2.0 5.0 0.00 0.00 0.00 82 1012.8
20260903091016 77 135 1.0 5.0 0.00 0.00 0.00 82 1012.6
20260903090017 78 135 1.0 5.0 0.00 0.00 0.00 82 1012.7
20260903085017 78 135 1.0 5.0 0.00 0.00 0.00 81 1012.7
20260903084017 78 0.0 2.0 0.00 0.00 0.00 80 1012.8
20260903083018 79 135 1.0 4.0 0.00 0.00 0.00 79 1012.8
20260903082037 79 135 1.0 4.0 0.00 0.00 0.00 78 1013.0
20260903081017 79 135 1.0 5.0 0.00 0.00 0.00 78 1013.0
20260903080016 79 158 2.0 7.0 0.00 0.00 0.00 78 1013.0
20260903075037 79 158 2.0 7.0 0.00 0.00 0.00 78 1013.0
20260903074016 79 135 1.0 5.0 0.00 0.00 0.00 77 1013.1
20260903073018 79 158 1.0 7.0 0.00 0.00 0.00 77 1013.0
20260903072016 79 135 2.0 6.0 0.00 0.00 0.00 77 1013.0
20260903071016 80 135 2.0 6.0 0.00 0.00 0.00 76 1013.3
20260903070016 80 113 1.0 3.0 0.00 0.00 0.00 75 1013.5
20260903065016 80 135 1.0 6.0 0.00 0.00 0.00 73 1013.5
20260903064016 80 135 1.0 6.0 0.00 0.00 0.00 71 1013.4
20260903063016 80 135 1.0 5.0 0.00 0.00 0.00 69 1013.3
20260903062017 81 135 2.0 6.0 0.00 0.00 0.00 69 1013.2
20260903061016 81 135 1.0 5.0 0.00 0.00 0.00 67 1013.2
20260903060016 81 135 2.0 5.0 0.00 0.00 0.00 66 1013.2
20260903055017 81 158 1.0 4.0 0.00 0.00 0.00 64 1013.1
20260903054036 81 135 1.0 7.0 0.00 0.00 0.00 63 1013.2
20260903053018 81 158 1.0 3.0 0.00 0.00 0.00 61 1013.0
20260903052016 80 158 1.0 3.0 0.00 0.00 0.00 59 1012.8
20260903051016 80 135 2.0 9.0 0.00 0.00 0.00 60 1012.7
20260903050016 79 135 1.0 5.0 0.00 0.00 0.00 60 1012.5
20260903045018 79 0.0 0.0 0.00 0.00 0.00 59 1012.3
20260903044017 79 0.0 0.0 0.00 0.00 0.00 59 1012.4
20260903043018 80 0.0 0.0 0.00 0.00 0.00 59 1012.3
20260903042058 80 0.0 0.0 0.00 0.00 0.00 59 1012.3
20260903041038 80 0.0 0.0 0.00 0.00 0.00 59 1012.3
20260903040018 80 0.0 0.0 0.00 0.00 0.00 59 1011.9
20260903035017 81 0.0 0.0 0.00 0.00 0.00 59 1012.1
20260903034018 81 0.0 0.0 0.00 0.00 0.00 58 1012.0
20260903033017 82 0.0 0.0 0.00 0.00 0.00 58 1011.7
20260903032017 82 0.0 0.0 0.00 0.00 0.00 57 1011.5
20260903031017 82 0.0 0.0 0.00 0.00 0.00 56 1011.4
20260903030018 83 0.0 0.0 0.00 0.00 0.00 56 1011.2
20260903025017 83 0.0 0.0 0.00 0.00 0.00 56 1011.1
20260903024017 84 0.0 1.0 0.00 0.00 0.00 55 1011.0
20260903023037 84 0.0 0.0 0.00 0.00 0.00 53 1010.6
20260903022037 85 0.0 0.0 0.00 0.00 0.00 52 1010.5
20260903021017 85 0.0 0.0 0.00 0.00 0.00 51 1010.3
20260903020139 86 0.0 0.0 0.00 0.00 0.00 50 1010.1
20260903015017 86 0.0 2.0 0.00 0.00 0.00 49 1010.0
20260903014017 87 0.0 0.0 0.00 0.00 0.00 47 1009.9
20260903013017 88 0.0 1.0 0.00 0.00 0.00 45 1009.9
20260903012017 89 0.0 0.0 0.00 0.00 0.00 44 1009.8
20260903011018 91 0.0 0.0 0.00 0.00 0.00 42 1009.8
20260903010017 92 0.0 0.0 0.00 0.00 0.00 41 1009.7
20260903005017 93 0.0 0.0 0.00 0.00 0.00 39 1009.9
20260903004017 94 0.0 1.0 0.00 0.00 0.00 38 1009.9
20260903003017 95 0.0 1.0 0.00 0.00 0.00 37 1010.0
20260903002017 96 135 1.0 4.0 0.00 0.00 0.00 35 1009.9
20260903001018 97 113 1.0 3.0 0.00 0.00 0.00 35 1010.2
20260903000017 97 135 1.0 4.0 0.00 0.00 0.00 33 1010.2
20260902235017 98 135 1.0 4.0 0.00 0.00 0.00 32 1010.3
20260902234017 99 135 2.0 4.0 0.00 0.00 0.00 31 1010.5
20260902233017 100 135 1.0 3.0 0.00 0.00 0.00 31 1010.6
20260902232036 100 135 1.0 6.0 0.00 0.00 0.00 29 1010.6
20260902231016 100 135 2.0 4.0 0.00 0.00 0.00 30 1010.5
20260902230017 101 158 1.0 4.0 0.00 0.00 0.00 30 1010.5
20260902225017 101 113 1.0 11.0 0.00 0.00 0.00 29 1010.6
20260902224017 101 23 1.0 4.0 0.00 0.00 0.00 31 1010.6
20260902223017 102 135 2.0 5.0 0.00 0.00 0.00 29 1010.8
20260902222016 102 135 2.0 6.0 0.00 0.00 0.00 28 1010.9
20260902221017 102 135 1.0 7.0 0.00 0.00 0.00 29 1011.0
20260902220016 102 135 2.0 7.0 0.00 0.00 0.00 27 1011.0
20260902215016 102 113 1.0 6.0 0.00 0.00 0.00 28 1010.9
20260902214016 102 135 2.0 6.0 0.00 0.00 0.00 28 1011.1
20260902213017 102 203 2.0 6.0 0.00 0.00 0.00 27 1011.2
20260902212016 102 158 2.0 8.0 0.00 0.00 0.00 27 1011.3
20260902211016 102 180 2.0 7.0 0.00 0.00 0.00 26 1011.2
20260902210016 102 180 1.0 6.0 0.00 0.00 0.00 28 1011.4